Location: Unspecified
(0.0000°N, 0.0000°E)
Time: 14:28:08
(UTC+02:00)

ARIANE 5 R/B - Visible Passes

Search period start: 29 March 2015 00:00
Search period end: 08 April 2015 01:00
Orbit: 650 x 38452 km, 6.6° (Epoch: 27 March)

Date Brightness Start Highest point End Pass type
(mag) Time Alt. Az. Time Alt. Az. Time Alt. Az.
31 Mar 6.0 07:06:42 16° W 17:55:32 89° S 18:04:31 10° E visible
01 Apr 6.5 06:12:01 34° W 06:51:52 87° N 17:07:03 10° E visible
02 Apr 6.9 05:17:19 57° W 05:31:12 90° S 16:09:14 10° E visible
03 Apr 6.8 04:22:38 84° SW 04:24:07 86° S 15:10:55 10° E visible
04 Apr 7.0 03:27:57 65° E 03:27:57 65° E 14:11:51 10° E visible
05 Apr 7.5 02:33:15 41° E 02:33:15 41° E 13:11:37 10° E visible
06 Apr 7.9 01:38:33 22° E 01:38:33 22° E 12:09:29 10° E visible
